Location: Aulnay-sous-Bois
(48.9381°N, 2.4940°E)
Time: 05:26:18
(UTC+00:00)

Daily predictions for brighter satellites

Satellite Brightness Start Highest point End
(mag) Time Altitude Azimuth Time Altitude Azimuth Time Altitude Azimuth
Cosmos 1980 Rocket 4.2 00:15:52 23° NNE 00:15:52 23° NNE 00:17:57 10° NNE
ATLAS 3B R/B 3.8 00:21:55 36° NE 00:21:55 36° NE 00:25:48 10° NE
SL-16 R/B 4.4 00:26:19 19° NE 00:26:19 19° NE 00:28:07 10° NE
ADEOS Rocket 4.2 00:30:11 47° NE 00:30:11 47° NE 00:37:06 10° N
SL-16 R/B 3.8 00:33:11 36° NE 00:33:11 36° NE 00:37:48 10° N
Cosmos 2344 4.1 00:32:45 10° NW 00:40:55 77° WNW 00:40:55 77° WNW
USA 234 4.0 00:52:54 10° NE 00:57:22 48° NE 00:57:22 48° NE
Cosmos 2322 Rocket 3.9 01:02:22 28° NE 01:02:22 28° NE 01:05:06 10° NE
Cosmos 2333 Rocket 4.0 01:25:50 25° E 01:25:50 25° E 01:29:20 10° NE
ATLAS 5 CENTAUR R/B 4.2 01:28:21 16° NE 01:28:21 16° NE 01:29:22 10° NE
Resurs 1-4 Rocket 3.6 01:20:57 10° NNE 01:23:55 34° NNE 01:23:55 34° NNE
Cosmos 2360 Rocket 3.3 01:35:08 40° NE 01:35:08 40° NE 01:38:51 10° NE
ADEOS II 3.1 01:44:15 10° NNE 01:48:05 42° NE 01:48:05 42° NE
Cosmos 2219 Rocket 3.4 01:53:02 34° E 01:53:02 34° E 01:57:30 10° NE
Cosmos 1092 Rocket 4.4 01:48:46 10° N 01:53:28 55° N 01:53:28 55° N
Cosmos 1980 Rocket 4.1 01:57:38 20° NNW 01:57:38 20° NNW 02:01:20 10° N
CZ-2D R/B 3.1 01:55:37 10° N 01:59:12 42° N 01:59:12 42° N
SL-16 R/B 3.2 02:08:10 38° NNW 02:08:10 38° NNW 02:12:24 10° NNE
Cosmos 2278 Rocket 3.7 02:02:31 10° NNW 02:07:43 35° NE 02:12:53 10° ESE
ATLAS 3B R/B 3.8 02:09:08 30° NW 02:10:28 33° NNW 02:16:41 10° NE
Cosmos 1634 Rocket 4.0 02:12:02 78° ENE 02:12:02 78° ENE 02:18:01 10° NNE
ADEOS Rocket 4.2 02:17:09 38° WNW 02:17:09 38° WNW 02:22:34 10° NNW
SL-16 R/B 3.7 02:18:17 30° NW 02:18:17 30° NW 02:21:36 10° NNW
IRS-1D 4.0 02:11:05 10° NNE 02:15:59 60° ENE 02:15:59 60° ENE
USA 229 DEB 3.9 02:17:34 53° SE 02:18:01 54° ESE 02:24:39 10° NE
USA 229 3.9 02:17:39 53° SE 02:18:07 54° ESE 02:24:44 10° NE
Cosmos 1371 Rocket 4.5 02:21:59 57° N 02:21:59 57° N 02:26:18 10° NNE
Cosmos 2322 3.9 02:23:18 66° ESE 02:23:18 66° ESE 02:28:52 10° NNE
COSMOS 2428 3.2 02:26:57 51° SE 02:27:22 52° ESE 02:32:52 10° NE
NPP 4.4 02:23:52 10° N 02:27:56 43° NNW 02:27:56 43° NNW
Meteor 2-14 Rocket 4.3 02:25:17 10° N 02:31:25 84° W 02:31:26 84° WSW
IDEFIX/ARIANE 42P 2.6 02:29:58 10° NNE 02:35:12 79° E 02:35:12 79° E
Cosmos 1932 4.3 02:29:17 10° NW 02:35:33 87° NE 02:41:48 10° SE
Sich 1 3.8 02:34:54 10° N 02:39:14 50° ENE 02:39:31 49° E
NOSS 3-1 (A) 3.2 02:39:09 69° SSE 02:39:28 71° SE 02:45:47 10° NE
Cosmos 1933 4.5 02:40:26 42° ENE 02:40:26 42° ENE 02:43:42 10° NNE
SL-19 R/B 4.2 02:34:14 10° NNE 02:39:43 70° NW 02:39:43 70° NW
Cosmos 1805 Rocket 4.2 02:35:59 10° N 02:39:36 53° NNE 02:39:36 53° NNE
Cosmos 2026 Rocket 4.3 02:35:04 10° NNW 02:40:06 49° WNW 02:40:06 49° WNW
Meteor 2-21 4.3 02:35:04 10° NNW 02:41:12 73° W 02:41:13 73° W
USA 234 3.9 02:35:55 10° ENE 02:42:08 48° N 02:44:42 32° WNW
Cosmos 1624 Rocket 4.4 02:43:12 53° NNW 02:43:12 53° NNW 02:47:46 10° NNE
Cosmos 2322 Rocket 3.2 02:44:11 32° NW 02:44:11 32° NW 02:48:58 10° NNE
Helios 1B rocket 4.1 02:41:10 10° N 02:43:13 26° NNW 02:43:13 26° NNW
Cosmos 1741 Rocket 4.1 02:41:25 10° NNW 02:46:44 72° ENE 02:51:58 10° SSE
Cosmos 2237 Rocket 3.7 02:49:49 19° SSE 02:53:00 32° ESE 02:58:00 10° NE
Meteor 2-16 Rocket 4.3 02:46:55 10° N 02:53:07 89° WSW 02:55:48 36° S
Cosmos 1850 Rocket 3.9 02:49:02 10° NNW 02:54:19 85° ENE 02:59:37 10° SSE
CZ-2C R/B 4.1 02:50:48 10° NNE 02:55:29 33° E 02:59:51 11° SSE
Meteor 2-21 Rocket 4.3 02:50:20 10° NNW 02:56:27 73° W 02:57:52 54° SSW
GEOS 3 Rocket 4.2 02:58:20 10° NNE 03:03:12 41° NW 03:03:52 39° NW
CENTAUR R/B 4.5 02:57:47 10° NW 03:04:38 35° NNE 03:12:22 10° E
Meteor 1-25 Rocket 4.2 02:58:54 10° NNW 03:04:47 78° W 03:07:23 35° S
NOSS 2-3 (D) 4.0 03:05:10 52° NW 03:05:10 52° NW 03:10:04 10° NE
Resurs 1-4 Rocket 3.6 03:01:36 10° N 03:04:59 22° NW 03:04:59 22° NW
Aureole 1 Rocket 4.3 03:00:49 10° NNW 03:05:54 44° ENE 03:09:48 10° SE
MSX 3.7 03:01:52 10° NNE 03:07:41 79° WNW 03:09:17 50° SSW
Cosmos 2333 Rocket 2.3 03:07:52 54° W 03:08:36 58° WNW 03:14:14 10° NNE
Cosmos 2333 4.4 03:09:11 48° WNW 03:09:48 50° NW 03:15:17 10° NNE
ATLAS 5 CENTAUR R/B 2.6 03:09:52 32° NW 03:09:55 32° NNW 03:14:07 10° NNE
Cosmos 1782 3.1 03:11:03 58° SE 03:11:29 63° E 03:15:24 10° NNE
Cosmos 2221 4.2 03:14:14 22° NW 03:14:14 22° NW 03:16:33 10° NNW
Gbstr 26 Del rocket 4.2 03:09:00 25° WNW 03:14:06 84° SSW 03:21:05 10° ESE
CBERS-1 4.1 03:10:52 10° N 03:15:52 57° WNW 03:16:26 53° W
Cosmos 1500 3.3 03:12:59 10° N 03:16:45 72° ENE 03:17:22 58° SE
Cosmos 1812 4.0 03:14:44 21° SSE 03:16:45 38° E 03:20:20 10° NNE
IRS-1C 4.1 03:11:46 10° NNE 03:17:09 87° ESE 03:19:22 37° SSW
ALOS 3.8 03:13:24 10° NNE 03:17:39 34° E 03:21:53 10° SSE
Cosmos 2360 Rocket 3.2 03:16:55 29° WNW 03:17:40 30° NW 03:22:37 10° NNE
Cosmos 2180 Rocket 4.4 03:15:39 41° SSW 03:17:51 71° WNW 03:24:04 10° N
Cosmos 1655 Rocket 3.9 03:12:38 10° NNW 03:18:52 78° W 03:25:05 10° S
NOSS 2-3 (C) 4.3 03:18:42 40° NW 03:19:11 41° NW 03:24:03 10° NE
Cosmos 1452 Rocket 3.4 03:19:36 52° SW 03:20:53 75° WNW 03:26:11 10° NNE
Cosmos 1271 Rocket 4.0 03:23:44 30° NW 03:23:44 30° NW 03:26:14 10° N
NOSS 3-1 (C) 3.9 03:22:29 36° WNW 03:24:14 46° NW 03:30:35 10° NE
Cosmos 1340 Rocket 2.6 03:21:08 10° NNW 03:25:10 88° W 03:26:28 42° S
ARIANE 5 R/B 2.4 03:21:03 10° NNE 03:26:11 86° ESE 03:28:42 30° SSW
USA 32 4.4 03:26:23 41° W 03:26:41 41° WNW 03:31:40 10° N
Meteor 1-14 Rocket 4.4 03:22:22 10° N 03:28:14 76° ENE 03:33:55 10° SSE
ADEOS II 3.2 03:24:27 10° N 03:28:48 27° WNW 03:29:00 27° WNW
CZ-4C R/B 4.0 03:26:13 10° SSE 03:30:02 23° ESE 03:34:24 10° ENE
SL-08 R/B 3.1 03:28:31 18° S 03:31:52 70° WSW 03:36:29 10° NNW
Cosmos 1470 Rocket 4.4 03:29:00 10° N 03:33:22 51° ENE 03:37:40 10° SSE
FENGYUN 3A 4.3 03:29:07 10° NNE 03:34:25 56° E 03:39:42 10° S
Cosmos 1331 Rocket 4.1 03:31:59 25° S 03:34:59 74° ESE 03:40:10 10° NNE
Cosmos 2279 Rocket 4.4 03:34:11 35° WSW 03:35:53 42° WNW 03:41:49 10° N
Cosmos 2219 Rocket 2.6 03:34:45 36° W 03:36:18 44° NW 03:41:40 10° NNE
Cosmos 1666 Rocket 3.4 03:32:40 10° NNW 03:37:00 75° W 03:40:36 14° S
Geosat 4.5 03:34:29 10° SE 03:39:26 62° NE 03:44:25 10° NNW
CZ-2D R/B 4.0 03:37:32 10° NNW 03:40:03 13° NW 03:40:30 13° WNW
Cosmos 1328 Rocket 3.8 03:39:10 14° S 03:42:47 69° E 03:47:06 10° NNE
Cosmos 2266 Rocket 4.0 03:38:51 10° NNW 03:44:52 55° W 03:50:44 10° SSW
Meteor 2-15 Rocket 4.4 03:39:20 10° S 03:45:25 90° E 03:51:34 10° N
Cosmos 2278 Rocket 2.3 03:46:32 10° NW 03:51:59 48° WSW 03:57:23 10° S
SL-16 R/B 4.3 03:50:09 10° NW 03:52:41 13° NNW 03:55:15 10° N
NOSS 2-2 (D) 2.9 03:55:52 37° SW 03:57:07 85° SE 04:00:51 10° NE
Cosmos 2369 Rocket 4.2 03:52:17 10° NNW 03:57:09 29° NE 04:01:59 10° ESE
Cosmos 44 3.5 03:54:26 25° SW 03:57:43 84° NW 04:03:08 10° NE
IRS-P3 4.4 03:52:41 10° N 03:57:48 47° WNW 04:00:41 24° SW
Spot 4 Rocket 4.0 03:53:12 10° NNE 03:58:23 85° WNW 04:03:32 10° SSW
NOSS 0 Rocket 3.9 03:55:13 22° SW 03:59:27 72° WNW 04:05:42 10° NNE
Cosmos 1943 Rocket 3.1 03:54:00 10° NNW 03:59:34 52° NE 04:05:05 10° SE
Meteor 1-5 Rocket 4.0 03:54:17 10° NNW 03:59:36 74° W 04:04:53 10° S
Cosmos 1666 2.5 03:56:11 10° NNW 03:59:56 67° W 04:03:42 10° S
Cosmos 2297 4.4 03:54:28 10° NNW 04:00:10 58° ENE 04:05:49 10° SE
SL-16 R/B 3.6 03:55:19 10° S 04:00:28 38° ESE 04:05:40 10° NE
Meteor 1-11 Rocket 4.5 03:54:48 10° N 04:00:43 59° ENE 04:06:31 10° SSE
ATLAS 3B R/B 4.5 03:57:58 10° NW 04:03:21 24° N 04:08:55 10° NE
Cosmos 1151 Rocket 3.2 04:02:58 21° SW 04:05:40 52° WNW 04:09:58 10° N
Cosmos 968 Rocket 3.6 04:01:05 10° NNW 04:06:24 81° ENE 04:11:37 10° SSE
CZ-2D R/B 3.8 04:02:33 10° N 04:06:49 49° WNW 04:09:29 21° SW
USA 229 DEB 4.2 04:05:01 21° W 04:09:08 46° NW 04:15:52 10° NE
USA 229 4.2 04:05:06 21° W 04:09:13 46° NW 04:15:58 10° NE
COSMOS 2428 3.6 04:08:59 21° W 04:11:53 33° NW 04:17:01 10° NNE
SL-08 ROCKET BODY 4.4 04:07:32 10° N 04:13:26 85° E 04:19:17 10° S
NOSS 2-2 (E) 3.3 04:12:26 27° WSW 04:14:01 52° NW 04:17:48 10° NE
IDEFIX/ARIANE 42P 4.1 04:10:38 10° NNW 04:14:17 19° WNW 04:16:01 16° W
Sich 1 4.5 04:13:26 10° NW 04:16:23 19° W 04:16:23 19° W
COSMO-SKYMED 1 4.3 04:14:25 10° SE 04:18:24 36° ENE 04:22:24 10° N
Cosmos 1633 Rocket 3.7 04:16:45 10° NNW 04:20:44 33° W 04:24:41 10° SSW
Cosmos 1244 Rocket 4.4 04:15:10 10° NNW 04:21:28 76° W 04:27:37 10° S
Cosmos 1110 Rocket 4.4 04:18:26 17° SW 04:22:13 45° WNW 04:27:17 10° NNE
Cosmos 2285 Rocket 4.1 04:16:42 11° SW 04:22:39 61° WNW 04:28:55 10° NNE
Cosmos 1536 3.4 04:19:39 10° N 04:23:37 61° ENE 04:27:32 10° SSE
USA 234 4.1 04:18:18 10° E 04:24:29 47° N 04:30:40 10° WNW
MOS 1 Rocket 3.9 04:21:00 10° SSW 04:25:01 30° W 04:28:55 10° NNW
CZ-4B R/B 4.0 04:21:29 10° N 04:26:17 43° WNW 04:31:10 10° SW
Cosmos 1980 3.9 04:22:15 14° SW 04:26:59 54° NW 04:32:33 10° NNE
PAYLOAD A 4.3 04:25:14 10° N 04:29:35 39° WNW 04:33:56 10° SW
Cosmos 2322 Rocket 4.5 04:29:11 10° NNW 04:29:58 10° NNW 04:30:44 10° NNW
Cosmos 1515 Rocket 3.5 04:26:27 10° SSW 04:30:46 69° WNW 04:35:06 10° N
NOSS 3-1 (A) 4.4 04:26:36 15° W 04:30:55 35° NNW 04:37:06 10° NE
CZ-2C R/B 3.0 04:28:55 10° N 04:33:46 40° WNW 04:38:33 10° SW
Cosmos 1486 Rocket 4.0 04:31:24 10° NNW 04:36:47 86° WSW 04:42:07 10° SSE
Cosmos 2237 Rocket 2.5 04:31:41 12° SW 04:36:52 49° NW 04:42:25 10° NNE
Meteor 1-27 Rocket 4.0 04:37:09 10° S 04:43:00 80° E 04:48:59 10° NNE
METEOR-M 4.2 04:40:20 10° N 04:45:37 62° WNW 04:50:53 10° SSW
H-2A R/B 4.2 04:42:30 10° SE 04:46:30 33° ENE 04:50:29 10° N
Aureole 1 Rocket 4.2 04:46:03 10° NW 04:49:44 21° W 04:52:48 10° SW
S3M 4.3 04:43:27 10° S 04:49:48 78° E 04:56:07 10° NNE
Envisat 4.0 04:46:50 10° NNE 04:51:50 53° E 04:56:47 10° S
NOSS 2-2 (C) 4.0 04:49:13 11° WSW 04:52:11 33° NW 04:55:46 10° NNE
Cosmos 1812 4.2 04:49:51 10° WSW 04:52:40 19° WNW 04:55:30 10° NNW
CZ-2C R/B 3.7 04:49:23 10° N 04:52:56 31° WNW 04:56:26 10° SW
Cosmos 2333 Rocket 4.0 04:50:45 10° WNW 04:54:10 16° NNW 04:57:36 10° N
ALOS 3.0 04:50:52 10° N 04:55:01 33° WNW 04:59:10 10° SW
ATLAS 5 CENTAUR R/B 3.9 04:53:16 10° NW 04:56:02 16° N 04:59:04 10° NNE
CENTAUR R/B 3.5 04:48:34 10° NW 04:56:35 77° NE 05:05:32 10° SE
USA 238 DEB 4.2 04:52:59 10° NW 05:00:13 74° NE 05:07:49 10° SE
USA 238 4.2 04:53:05 10° NW 05:00:19 73° NE 05:07:56 10° SE
Cosmos 1709 Rocket 4.3 04:58:27 10° N 05:04:35 75° E 05:10:42 10° SSE
ARIANE 5 R/B 4.1 05:01:25 10° NNW 05:04:37 17° NW 05:07:46 10° W
BREEZE-M DEB (TANK) 2.4 05:01:44 10° W 05:04:53 46° NNW 05:07:32 10° ENE
CZ-2C R/B 2.9 04:59:51 10° SSE 05:05:01 75° ENE 05:10:20 10° N
YAOGAN 6 2.8 05:01:50 10° NNE 05:05:22 72° ESE 05:08:51 10° S
SKYMED 2 3.5 05:02:05 10° S 05:06:25 78° WSW 05:10:47 10° NNW
